Year,Month,Day,Hour,Minute,Value (Times are PST for temperature in C)
2016,12,14,10,24,0.70
2016,12,14,10,25,0.70
2016,12,14,10,26,0.70
2016,12,14,10,27,0.70
2016,12,14,10,28,0.70
2016,12,14,10,29,0.70
2016,12,14,10,30,0.70
2016,12,14,10,31,0.70
2016,12,14,10,32,0.70
2016,12,14,10,33,0.70
2016,12,14,10,34,0.70
2016,12,14,10,35,0.70
2016,12,14,10,36,0.70
2016,12,14,10,37,0.70
2016,12,14,10,38,0.70
2016,12,14,10,39,0.70
2016,12,14,10,40,0.70
2016,12,14,10,41,0.70
2016,12,14,10,42,0.70
2016,12,14,10,43,0.70
2016,12,14,10,44,0.70
2016,12,14,10,45,0.70
2016,12,14,10,46,0.80
2016,12,14,10,47,0.80
2016,12,14,10,48,0.80
2016,12,14,10,49,0.90
2016,12,14,10,50,0.90
2016,12,14,10,51,0.90
2016,12,14,10,52,1.00
2016,12,14,10,53,1.00
2016,12,14,10,54,1.10
2016,12,14,10,55,1.10
2016,12,14,10,56,1.10
2016,12,14,10,57,1.10
2016,12,14,10,58,1.20
2016,12,14,10,59,1.20
2016,12,14,11,00,1.20
2016,12,14,11,01,1.20
2016,12,14,11,02,1.30
2016,12,14,11,03,1.30
2016,12,14,11,04,1.30
2016,12,14,11,05,1.40
2016,12,14,11,06,1.40
2016,12,14,11,07,1.50
2016,12,14,11,08,1.50
2016,12,14,11,09,1.60
2016,12,14,11,10,1.60
2016,12,14,11,11,1.60
2016,12,14,11,12,1.70
2016,12,14,11,13,1.70
2016,12,14,11,14,1.80
2016,12,14,11,15,1.80
2016,12,14,11,16,1.80
2016,12,14,11,17,1.80
2016,12,14,11,18,1.80
2016,12,14,11,19,1.80
2016,12,14,11,20,1.80
2016,12,14,11,21,1.90
2016,12,14,11,22,1.90
2016,12,14,11,23,1.90
2016,12,14,11,24,1.90
2016,12,14,11,25,1.90
2016,12,14,11,26,1.90
2016,12,14,11,27,1.90
2016,12,14,11,28,2.00
2016,12,14,11,29,2.00
2016,12,14,11,30,2.00
2016,12,14,11,31,2.10
2016,12,14,11,32,2.10
2016,12,14,11,33,2.20
2016,12,14,11,34,2.20
2016,12,14,11,35,2.20
2016,12,14,11,36,2.20
2016,12,14,11,37,2.20
2016,12,14,11,38,2.20
2016,12,14,11,39,2.20
2016,12,14,11,40,2.20
2016,12,14,11,41,2.10
2016,12,14,11,42,2.10
2016,12,14,11,43,2.10
2016,12,14,11,44,2.10
2016,12,14,11,45,2.10
2016,12,14,11,46,2.10
2016,12,14,11,47,2.10
2016,12,14,11,48,2.10
2016,12,14,11,49,2.10
2016,12,14,11,50,2.10
2016,12,14,11,51,2.10
2016,12,14,11,52,2.10
2016,12,14,11,53,2.10
2016,12,14,11,54,2.10
2016,12,14,11,55,2.10
2016,12,14,11,56,2.10
2016,12,14,11,57,2.10
2016,12,14,11,58,2.10
2016,12,14,11,59,2.10
2016,12,14,12,00,2.20
2016,12,14,12,01,2.10
2016,12,14,12,02,2.10
2016,12,14,12,03,2.20
2016,12,14,12,04,2.20
2016,12,14,12,05,2.20
2016,12,14,12,06,2.20
2016,12,14,12,07,2.20
2016,12,14,12,08,2.20
2016,12,14,12,09,2.20
2016,12,14,12,10,2.20
2016,12,14,12,11,2.20
2016,12,14,12,12,2.30
2016,12,14,12,13,2.30
2016,12,14,12,14,2.30
2016,12,14,12,15,2.30
2016,12,14,12,16,2.30
2016,12,14,12,17,2.40
2016,12,14,12,18,2.40
2016,12,14,12,19,2.40
2016,12,14,12,20,2.50
2016,12,14,12,21,2.50
2016,12,14,12,22,2.50
2016,12,14,12,23,2.60
2016,12,14,12,24,2.60
2016,12,14,12,25,2.60
2016,12,14,12,26,2.70
2016,12,14,12,27,2.70
2016,12,14,12,28,2.70
2016,12,14,12,29,2.70
2016,12,14,12,30,2.70
2016,12,14,12,31,2.80
2016,12,14,12,32,2.80
2016,12,14,12,33,2.80
2016,12,14,12,34,2.90
2016,12,14,12,35,2.90
2016,12,14,12,36,2.90
2016,12,14,12,37,3.00
2016,12,14,12,38,3.00
2016,12,14,12,39,3.10
2016,12,14,12,40,3.10
2016,12,14,12,41,3.10
2016,12,14,12,42,3.10
2016,12,14,12,43,3.10
2016,12,14,12,44,3.10
2016,12,14,12,45,3.10
2016,12,14,12,46,3.10
2016,12,14,12,47,3.10
2016,12,14,12,48,3.10
2016,12,14,12,49,3.10
2016,12,14,12,50,3.10
2016,12,14,12,51,3.10
2016,12,14,12,52,3.10
2016,12,14,12,53,3.00
2016,12,14,12,54,3.00
2016,12,14,12,55,3.00
2016,12,14,12,56,3.00
2016,12,14,12,57,3.00
2016,12,14,12,58,2.90
2016,12,14,12,59,3.00
2016,12,14,13,00,3.00
2016,12,14,13,01,3.00
2016,12,14,13,02,3.00
2016,12,14,13,03,3.00
2016,12,14,13,04,3.00
2016,12,14,13,05,3.10
2016,12,14,13,06,3.10
2016,12,14,13,07,3.10
2016,12,14,13,08,3.10
2016,12,14,13,09,3.10
2016,12,14,13,10,3.20
2016,12,14,13,11,3.20
2016,12,14,13,12,3.20
2016,12,14,13,13,3.30
2016,12,14,13,14,3.30
2016,12,14,13,15,3.30
2016,12,14,13,16,3.30
2016,12,14,13,17,3.20
2016,12,14,13,18,3.20
2016,12,14,13,19,3.20
2016,12,14,13,20,3.20
2016,12,14,13,21,3.20
2016,12,14,13,22,3.20
2016,12,14,13,23,3.20
2016,12,14,13,24,3.20
2016,12,14,13,25,3.20
2016,12,14,13,26,3.20
2016,12,14,13,27,3.20
2016,12,14,13,28,3.20
2016,12,14,13,29,3.20
2016,12,14,13,30,3.20
2016,12,14,13,31,3.20
2016,12,14,13,32,3.10
2016,12,14,13,33,3.10
2016,12,14,13,34,3.10
2016,12,14,13,35,3.10
2016,12,14,13,36,3.10
2016,12,14,13,37,3.10
2016,12,14,13,38,3.10
2016,12,14,13,39,3.10
2016,12,14,13,40,3.10
2016,12,14,13,41,3.10
2016,12,14,13,42,3.00
2016,12,14,13,43,3.00
2016,12,14,13,44,2.90
2016,12,14,13,45,2.90
2016,12,14,13,46,2.90
2016,12,14,13,47,2.90
2016,12,14,13,48,2.90
2016,12,14,13,49,2.90
2016,12,14,13,50,2.90
2016,12,14,13,51,2.90
2016,12,14,13,52,2.90
2016,12,14,13,53,2.80
2016,12,14,13,54,2.90
2016,12,14,13,55,2.80
2016,12,14,13,56,2.80
2016,12,14,13,57,2.80
2016,12,14,13,58,2.80
2016,12,14,13,59,2.80
2016,12,14,14,00,2.80
2016,12,14,14,01,2.80
2016,12,14,14,02,2.80
2016,12,14,14,03,2.80
2016,12,14,14,04,2.80
2016,12,14,14,05,2.80
2016,12,14,14,06,2.80
2016,12,14,14,07,2.80
2016,12,14,14,08,2.80
2016,12,14,14,09,2.80
2016,12,14,14,10,2.80
2016,12,14,14,11,2.80
2016,12,14,14,12,2.80
2016,12,14,14,13,2.80
2016,12,14,14,14,2.80
2016,12,14,14,15,2.80
2016,12,14,14,16,2.80
2016,12,14,14,17,2.80
2016,12,14,14,18,2.80
2016,12,14,14,19,2.80
2016,12,14,14,20,2.80
2016,12,14,14,21,2.80
2016,12,14,14,22,2.80
2016,12,14,14,23,2.80
2016,12,14,14,24,2.80
2016,12,14,14,25,2.80
2016,12,14,14,26,2.80
2016,12,14,14,27,2.80
2016,12,14,14,28,2.80
2016,12,14,14,29,2.80
2016,12,14,14,30,2.80
2016,12,14,14,31,2.80
2016,12,14,14,32,2.80
2016,12,14,14,33,2.80
2016,12,14,14,34,2.80
2016,12,14,14,35,2.80
2016,12,14,14,36,2.80
2016,12,14,14,37,2.80
2016,12,14,14,38,2.80
2016,12,14,14,39,2.80
2016,12,14,14,40,2.80
2016,12,14,14,41,2.80
2016,12,14,14,42,2.80
2016,12,14,14,43,2.80
2016,12,14,14,44,2.80
2016,12,14,14,45,2.80
2016,12,14,14,46,2.80
2016,12,14,14,47,2.90
2016,12,14,14,48,2.90
2016,12,14,14,49,2.80
2016,12,14,14,50,2.80
2016,12,14,14,51,2.80
2016,12,14,14,52,2.90
2016,12,14,14,53,2.90
2016,12,14,14,54,2.90
2016,12,14,14,55,2.90
2016,12,14,14,56,2.90
2016,12,14,14,57,2.90
2016,12,14,14,58,2.90
2016,12,14,14,59,3.00
2016,12,14,15,00,3.00
2016,12,14,15,01,3.00
2016,12,14,15,02,3.00
2016,12,14,15,03,3.00
2016,12,14,15,04,3.00
2016,12,14,15,05,3.00
2016,12,14,15,06,2.90
2016,12,14,15,07,2.90
2016,12,14,15,08,2.90
2016,12,14,15,09,2.90
2016,12,14,15,10,2.90
2016,12,14,15,11,2.90
2016,12,14,15,12,2.90
2016,12,14,15,13,3.00
2016,12,14,15,14,3.00
2016,12,14,15,15,3.00
2016,12,14,15,16,3.00
2016,12,14,15,17,3.00
2016,12,14,15,18,3.00
2016,12,14,15,19,3.10
2016,12,14,15,20,3.00
2016,12,14,15,21,3.00
2016,12,14,15,22,3.10
2016,12,14,15,23,3.10
2016,12,14,15,24,3.10
2016,12,14,15,25,3.10
2016,12,14,15,26,3.10
2016,12,14,15,27,3.10
2016,12,14,15,28,3.10
2016,12,14,15,29,3.00
2016,12,14,15,30,3.00
2016,12,14,15,31,3.00
2016,12,14,15,32,2.90
2016,12,14,15,33,2.90
2016,12,14,15,34,2.80
2016,12,14,15,35,2.80
2016,12,14,15,36,2.80
2016,12,14,15,37,2.70
2016,12,14,15,38,2.70
2016,12,14,15,39,2.70
2016,12,14,15,40,2.70
2016,12,14,15,41,2.60
2016,12,14,15,42,2.60
2016,12,14,15,43,2.50
2016,12,14,15,44,2.50
2016,12,14,15,45,2.50
2016,12,14,15,46,2.40
2016,12,14,15,47,2.40
2016,12,14,15,48,2.30
2016,12,14,15,49,2.30
2016,12,14,15,50,2.30
2016,12,14,15,51,2.30
2016,12,14,15,52,2.20
2016,12,14,15,53,2.20
2016,12,14,15,54,2.20
2016,12,14,15,55,2.10
2016,12,14,15,56,2.10
2016,12,14,15,57,2.10
2016,12,14,15,58,2.10
2016,12,14,15,59,2.00
2016,12,14,16,00,2.00
2016,12,14,16,01,2.00
2016,12,14,16,02,2.00
2016,12,14,16,03,1.90
2016,12,14,16,04,1.90
2016,12,14,16,05,1.90
2016,12,14,16,06,1.90
2016,12,14,16,07,1.90
2016,12,14,16,08,1.90
2016,12,14,16,09,1.90
2016,12,14,16,10,1.90
2016,12,14,16,11,1.90
2016,12,14,16,12,1.90
